sat.trackr.live / text

‹ back to catalog

STARLINK-3254

NORAD 50204 · 2021-125BA

PAYLOAD ACTIVE UNKNOWN

§ Identity

Operator
Country
US
Launch date
2021-12-18
Launch site
AFWTR
Launch vehicle
Mass (kg)
RCS (m²)

Purposes: comms

External: N2YO · Heavens-Above · Gunter

§ Orbital elements

Epoch: 2026-09-20T00:58:41.548224Z

Period
94.01 min
Inclination
53.1595°
Eccentricity
0.0001147
Mean motion
15.31703199 rev/d
Perigee alt
469.9 km
Apogee alt
471.5 km
Semi-major
6,848.9 km
B*
3.3329e-5
RAAN
75.0811°
Arg perigee
92.9609°
Mean anomaly
267.1524°
Rev number
26,628

§ Raw data

STARLINK-32541 50204U 21125BA  26263.04075866  .00000669  00000+0  33329-4 0  99912 50204  53.1595  75.0811 0001147  92.9609 267.1524 15.31703199266281

JSON: /api/v1/satellites/50204 · /tle

For live sub-satellite position, see the globe view (requires WebGL).

§ Visibility from observer

Set your observer location to see the next 7 days of passes ≥ 10°. The values pass through the URL so the page stays shareable.

No JS? Fill the form by hand. The geolocation button needs JavaScript.